Voltar ao catálogo

THOR ABLESTAR R/B

AtivoLEO
NORAD 447·ROCKET BODY·🇺🇸 United States

Lançado Oct 31, 1962 de Cape Canaveral Space Force Station

Loading…

Próximas Passagens (próximas 24 horas)

TLE

AtualizadoSource: Space-Track

Época: Sep 14, 2026, 05:48 UTC

1 00447U 62060B   26257.24209409 -.00000104  00000-0  43871-4 0  9994
2 00447  50.1287 196.4092 0065796  85.0401  81.9041 13.39177150124009

Acompanhe THOR ABLESTAR R/B em tempo real com AllMySat

Download on the App Store